| time (UTC) | temp C | wind direction | speed KPH | gust KPH | rain 1hr cm | rain 24hr cm | rain mn cm | humidity % | barometer mb |
| 20260505064003 | 14 | 210 | 0.0 | 1.6 | 0.00 | 0.00 | 0.00 | 76 | 1008.6 |
| 20260505063503 | 14 | 0 | 0.0 | 0.0 | 0.00 | 0.00 | 0.00 | 77 | 1008.7 |
| 20260505063003 | 14 | 161 | 0.0 | 1.6 | 0.00 | 0.00 | 0.00 | 76 | 1008.8 |
| 20260505062502 | 14 | 161 | 0.0 | 1.6 | 0.00 | 0.00 | 0.00 | 76 | 1008.9 |
| 20260505062003 | 14 | 182 | 0.0 | 1.6 | 0.00 | 0.00 | 0.00 | 75 | 1008.9 |
| 20260505061003 | 15 | 204 | 0.0 | 1.6 | 0.00 | 0.00 | 0.00 | 74 | 1009.0 |
| 20260505060504 | 15 | 246 | 0.0 | 1.6 | 0.00 | 0.00 | 0.00 | 73 | 1008.9 |
| 20260505060003 | 14 | 237 | 0.0 | 1.6 | 0.00 | 0.00 | 0.00 | 73 | 1009.0 |
| 20260505055503 | 14 | 234 | 0.0 | 1.6 | 0.00 | 0.00 | 0.00 | 73 | 1008.9 |
| 20260505055003 | 14 | 241 | 0.0 | 1.6 | 0.00 | 0.00 | 0.00 | 73 | 1009.0 |
| 20260505054003 | 14 | 240 | 1.6 | 4.8 | 0.00 | 0.00 | 0.00 | 73 | 1008.9 |
| 20260505053003 | 13 | 238 | 0.0 | 3.2 | 0.00 | 0.00 | 0.00 | 74 | 1008.9 |
| 20260505052503 | 13 | 240 | 0.0 | 1.6 | 0.00 | 0.00 | 0.00 | 74 | 1009.0 |
| 20260505052003 | 13 | 240 | 0.0 | 1.6 | 0.00 | 0.00 | 0.00 | 75 | 1008.8 |
| 20260505051503 | 13 | 0 | 0.0 | 0.0 | 0.00 | 0.00 | 0.00 | 74 | 1008.9 |
| 20260505051003 | 13 | 0 | 0.0 | 0.0 | 0.00 | 0.00 | 0.00 | 74 | 1008.9 |
| 20260505050503 | 14 | 0 | 0.0 | 0.0 | 0.00 | 0.00 | 0.00 | 73 | 1008.9 |
| 20260505041003 | 15 | 205 | 1.6 | 11.3 | 0.00 | 0.00 | 0.00 | 67 | 1008.7 |
| 20260505034003 | 15 | 189 | 3.2 | 6.4 | 0.00 | 0.00 | 0.00 | 65 | 1008.5 |
| 20260505033504 | 15 | 188 | 1.6 | 6.4 | 0.00 | 0.00 | 0.00 | 65 | 1008.4 |
| 20260505033003 | 15 | 187 | 1.6 | 4.8 | 0.00 | 0.00 | 0.00 | 64 | 1008.4 |
| 20260505032503 | 15 | 186 | 3.2 | 8.0 | 0.00 | 0.00 | 0.00 | 64 | 1008.5 |
| 20260505032003 | 15 | 185 | 3.2 | 8.0 | 0.00 | 0.00 | 0.00 | 64 | 1008.4 |
| 20260505031002 | 15 | 188 | 1.6 | 4.8 | 0.00 | 0.00 | 0.00 | 64 | 1008.7 |
| 20260505030005 | 15 | 194 | 0.0 | 3.2 | 0.00 | 0.00 | 0.00 | 64 | 1008.8 |
| 20260505025503 | 15 | 219 | 0.0 | 3.2 | 0.00 | 0.00 | 0.00 | 63 | 1008.7 |
| 20260505025003 | 15 | 179 | 0.0 | 3.2 | 0.00 | 0.00 | 0.00 | 63 | 1008.6 |
| 20260505024003 | 15 | 173 | 0.0 | 3.2 | 0.00 | 0.00 | 0.00 | 62 | 1008.5 |
| 20260505023503 | 15 | 174 | 0.0 | 3.2 | 0.00 | 0.00 | 0.00 | 62 | 1008.6 |
| 20260505023003 | 15 | 175 | 0.0 | 3.2 | 0.00 | 0.00 | 0.00 | 61 | 1008.5 |
| 20260505022503 | 15 | 176 | 1.6 | 4.8 | 0.00 | 0.00 | 0.00 | 61 | 1008.6 |
| 20260505022003 | 16 | 176 | 1.6 | 4.8 | 0.00 | 0.00 | 0.00 | 60 | 1008.6 |
| 20260505021503 | 16 | 175 | 1.6 | 6.4 | 0.00 | 0.00 | 0.00 | 60 | 1008.6 |
| 20260505021003 | 16 | 175 | 1.6 | 6.4 | 0.00 | 0.00 | 0.00 | 59 | 1008.5 |
| 20260505020505 | 16 | 176 | 1.6 | 4.8 | 0.00 | 0.00 | 0.00 | 59 | 1008.6 |
| 20260505020003 | 15 | 176 | 1.6 | 4.8 | 0.00 | 0.00 | 0.00 | 59 | 1008.8 |
| 20260505015002 | 15 | 172 | 1.6 | 3.2 | 0.00 | 0.00 | 0.00 | 59 | 1008.8 |
| 20260505014003 | 16 | 234 | 0.0 | 1.6 | 0.00 | 0.00 | 0.00 | 59 | 1008.9 |
| 20260505013503 | 16 | 235 | 0.0 | 1.6 | 0.00 | 0.00 | 0.00 | 58 | 1008.8 |
| 20260505012503 | 16 | 237 | 0.0 | 3.2 | 0.00 | 0.00 | 0.00 | 57 | 1008.6 |
| 20260505012003 | 16 | 231 | 0.0 | 1.6 | 0.00 | 0.00 | 0.00 | 57 | 1008.6 |
| 20260505011503 | 16 | 229 | 0.0 | 3.2 | 0.00 | 0.00 | 0.00 | 56 | 1008.4 |
| 20260505011005 | 16 | 213 | 0.0 | 6.4 | 0.00 | 0.00 | 0.00 | 56 | 1008.3 |
| 20260505010503 | 17 | 189 | 1.6 | 6.4 | 0.00 | 0.00 | 0.00 | 56 | 1008.2 |
| 20260505005503 | 17 | 211 | 3.2 | 9.7 | 0.00 | 0.00 | 0.00 | 54 | 1008.2 |
| 20260505004503 | 17 | 203 | 1.6 | 9.7 | 0.00 | 0.00 | 0.00 | 53 | 1008.3 |
| 20260505003503 | 17 | 193 | 3.2 | 9.7 | 0.00 | 0.00 | 0.00 | 52 | 1008.2 |
| 20260505003003 | 17 | 190 | 3.2 | 9.7 | 0.00 | 0.00 | 0.00 | 52 | 1008.3 |
| 20260505002503 | 17 | 189 | 1.6 | 6.4 | 0.00 | 0.00 | 0.00 | 51 | 1008.2 |
| 20260505002003 | 17 | 189 | 3.2 | 11.3 | 0.00 | 0.00 | 0.00 | 49 | 1008.2 |
| 20260505001505 | 18 | 193 | 4.8 | 11.3 | 0.00 | 0.00 | 0.00 | 49 | 1008.1 |
| 20260505001003 | 18 | 194 | 3.2 | 11.3 | 0.00 | 0.00 | 0.00 | 48 | 1008.1 |
| 20260505000004 | 18 | 189 | 3.2 | 11.3 | 0.00 | 0.00 | 0.00 | 47 | 1007.9 |
| 20260504235003 | 18 | 193 | 3.2 | 8.0 | 0.00 | 0.00 | 0.00 | 47 | 1008.0 |
| 20260504234003 | 18 | 191 | 3.2 | 9.7 | 0.00 | 0.00 | 0.00 | 46 | 1007.9 |
| 20260504233502 | 19 | 187 | 4.8 | 11.3 | 0.00 | 0.00 | 0.00 | 45 | 1007.9 |
| 20260504233003 | 20 | 183 | 4.8 | 11.3 | 0.00 | 0.00 | 0.00 | 44 | 1007.9 |
| 20260504232503 | 20 | 184 | 4.8 | 12.9 | 0.00 | 0.00 | 0.00 | 44 | 1007.9 |
| 20260504232005 | 20 | 190 | 3.2 | 12.9 | 0.00 | 0.00 | 0.00 | 43 | 1008.0 |
| 20260504231503 | 20 | 186 | 4.8 | 12.9 | 0.00 | 0.00 | 0.00 | 42 | 1008.0 |
| 20260504231003 | 20 | 184 | 4.8 | 12.9 | 0.00 | 0.00 | 0.00 | 42 | 1008.0 |
| 20260504230503 | 21 | 184 | 4.8 | 14.5 | 0.00 | 0.00 | 0.00 | 42 | 1008.1 |
| 20260504230003 | 21 | 188 | 4.8 | 14.5 | 0.00 | 0.00 | 0.00 | 41 | 1008.0 |
| 20260504225503 | 21 | 195 | 4.8 | 12.9 | 0.00 | 0.00 | 0.00 | 42 | 1008.0 |
| 20260504225003 | 21 | 191 | 4.8 | 12.9 | 0.00 | 0.00 | 0.00 | 41 | 1008.0 |
| 20260504223503 | 21 | 193 | 3.2 | 14.5 | 0.00 | 0.00 | 0.00 | 42 | 1008.1 |
| 20260504223003 | 21 | 191 | 4.8 | 9.7 | 0.00 | 0.00 | 0.00 | 41 | 1008.1 |
| 20260504222004 | 21 | 181 | 4.8 | 19.3 | 0.00 | 0.00 | 0.00 | 41 | 1008.1 |
| 20260504221003 | 21 | 189 | 4.8 | 16.1 | 0.00 | 0.00 | 0.00 | 41 | 1008.0 |
| 20260504220505 | 21 | 181 | 6.4 | 16.1 | 0.00 | 0.00 | 0.00 | 41 | 1008.0 |
| 20260504215503 | 21 | 183 | 6.4 | 20.9 | 0.00 | 0.00 | 0.00 | 39 | 1008.0 |
| 20260504215003 | 21 | 181 | 4.8 | 14.5 | 0.00 | 0.00 | 0.00 | 39 | 1008.0 |
| 20260504214003 | 21 | 192 | 6.4 | 14.5 | 0.00 | 0.00 | 0.00 | 40 | 1008.0 |
| 20260504213503 | 21 | 186 | 6.4 | 17.7 | 0.00 | 0.00 | 0.00 | 39 | 1008.0 |
| 20260504213003 | 21 | 179 | 6.4 | 17.7 | 0.00 | 0.00 | 0.00 | 39 | 1008.2 |
| 20260504212503 | 22 | 184 | 6.4 | 19.3 | 0.00 | 0.00 | 0.00 | 40 | 1008.1 |
| 20260504212003 | 22 | 187 | 6.4 | 19.3 | 0.00 | 0.00 | 0.00 | 39 | 1008.1 |
| 20260504211503 | 22 | 182 | 6.4 | 14.5 | 0.00 | 0.00 | 0.00 | 38 | 1008.1 |
| 20260504211005 | 22 | 179 | 8.0 | 22.5 | 0.00 | 0.00 | 0.00 | 39 | 1008.0 |
| 20260504210503 | 22 | 190 | 8.0 | 22.5 | 0.00 | 0.00 | 0.00 | 39 | 1008.0 |
| 20260504210004 | 22 | 200 | 6.4 | 17.7 | 0.00 | 0.00 | 0.00 | 38 | 1008.0 |
| 20260504205504 | 22 | 205 | 4.8 | 12.9 | 0.00 | 0.00 | 0.00 | 39 | 1007.9 |
| 20260504205003 | 22 | 195 | 6.4 | 17.7 | 0.00 | 0.00 | 0.00 | 41 | 1008.0 |
| 20260504204503 | 22 | 188 | 6.4 | 17.7 | 0.00 | 0.00 | 0.00 | 39 | 1008.0 |
| 20260504204003 | 22 | 186 | 4.8 | 16.1 | 0.00 | 0.00 | 0.00 | 38 | 1008.0 |
| 20260504203503 | 22 | 183 | 6.4 | 16.1 | 0.00 | 0.00 | 0.00 | 39 | 1007.9 |
| 20260504203003 | 22 | 184 | 6.4 | 16.1 | 0.00 | 0.00 | 0.00 | 39 | 1007.9 |
| 20260504202503 | 22 | 183 | 6.4 | 14.5 | 0.00 | 0.00 | 0.00 | 40 | 1008.0 |
| 20260504202003 | 22 | 188 | 6.4 | 12.9 | 0.00 | 0.00 | 0.00 | 39 | 1008.1 |
| 20260504201003 | 22 | 184 | 6.4 | 16.1 | 0.00 | 0.00 | 0.00 | 38 | 1008.2 |
| 20260504200503 | 22 | 193 | 6.4 | 16.1 | 0.00 | 0.00 | 0.00 | 39 | 1008.3 |
| 20260504200003 | 22 | 204 | 4.8 | 14.5 | 0.00 | 0.00 | 0.00 | 38 | 1008.4 |
| 20260504195503 | 22 | 188 | 4.8 | 17.7 | 0.00 | 0.00 | 0.00 | 41 | 1008.6 |
| 20260504195003 | 22 | 185 | 4.8 | 17.7 | 0.00 | 0.00 | 0.00 | 41 | 1008.6 |
| 20260504194503 | 22 | 183 | 6.4 | 14.5 | 0.00 | 0.00 | 0.00 | 40 | 1008.6 |
| 20260504194003 | 22 | 182 | 6.4 | 14.5 | 0.00 | 0.00 | 0.00 | 39 | 1008.8 |
| 20260504193503 | 22 | 195 | 4.8 | 14.5 | 0.00 | 0.00 | 0.00 | 39 | 1008.8 |
| 20260504193003 | 22 | 196 | 4.8 | 14.5 | 0.00 | 0.00 | 0.00 | 41 | 1008.9 |
| 20260504192504 | 22 | 185 | 3.2 | 9.7 | 0.00 | 0.00 | 0.00 | 41 | 1009.0 |
| 20260504192005 | 22 | 189 | 4.8 | 16.1 | 0.00 | 0.00 | 0.00 | 41 | 1009.0 |
| 20260504191503 | 22 | 186 | 6.4 | 16.1 | 0.00 | 0.00 | 0.00 | 40 | 1009.1 |
| 20260504191003 | 22 | 199 | 6.4 | 17.7 | 0.00 | 0.00 | 0.00 | 38 | 1009.3 |
| 20260504190504 | 22 | 213 | 4.8 | 17.7 | 0.00 | 0.00 | 0.00 | 40 | 1009.5 |
| 20260504190004 | 22 | 206 | 4.8 | 11.3 | 0.00 | 0.00 | 0.00 | 38 | 1009.3 |
| 20260504185503 | 22 | 203 | 6.4 | 12.9 | 0.00 | 0.00 | 0.00 | 39 | 1009.5 |
| 20260504185003 | 22 | 213 | 6.4 | 17.7 | 0.00 | 0.00 | 0.00 | 37 | 1009.6 |
| 20260504184503 | 22 | 216 | 6.4 | 17.7 | 0.00 | 0.00 | 0.00 | 40 | 1009.6 |
| 20260504184003 | 22 | 208 | 6.4 | 17.7 | 0.00 | 0.00 | 0.00 | 39 | 1009.6 |
| 20260504182503 | 22 | 195 | 4.8 | 19.3 | 0.00 | 0.00 | 0.00 | 39 | 1009.7 |
| 20260504182004 | 22 | 211 | 6.4 | 19.3 | 0.00 | 0.00 | 0.00 | 39 | 1009.6 |
| 20260504181503 | 21 | 215 | 6.4 | 16.1 | 0.00 | 0.00 | 0.00 | 37 | 1009.7 |
| 20260504181003 | 22 | 198 | 6.4 | 16.1 | 0.00 | 0.00 | 0.00 | 41 | 1009.8 |
| 20260504180503 | 22 | 195 | 6.4 | 12.9 | 0.00 | 0.00 | 0.00 | 40 | 1010.0 |
| 20260504180003 | 21 | 198 | 6.4 | 12.9 | 0.00 | 0.00 | 0.00 | 39 | 1009.9 |
| 20260504175503 | 21 | 203 | 6.4 | 24.1 | 0.00 | 0.00 | 0.00 | 42 | 1009.9 |
| 20260504175003 | 21 | 220 | 6.4 | 24.1 | 0.00 | 0.00 | 0.00 | 38 | 1010.1 |
| 20260504174504 | 21 | 220 | 4.8 | 17.7 | 0.00 | 0.00 | 0.00 | 39 | 1010.2 |
| 20260504174004 | 21 | 223 | 6.4 | 20.9 | 0.00 | 0.00 | 0.00 | 41 | 1010.2 |
| 20260504173503 | 21 | 216 | 6.4 | 20.9 | 0.00 | 0.00 | 0.00 | 39 | 1010.3 |
| 20260504173003 | 21 | 203 | 4.8 | 17.7 | 0.00 | 0.00 | 0.00 | 40 | 1010.3 |
| 20260504172505 | 21 | 200 | 4.8 | 17.7 | 0.00 | 0.00 | 0.00 | 39 | 1010.4 |
| 20260504172004 | 21 | 218 | 4.8 | 16.1 | 0.00 | 0.00 | 0.00 | 39 | 1010.5 |
| 20260504171003 | 21 | 197 | 3.2 | 12.9 | 0.00 | 0.00 | 0.00 | 43 | 1010.6 |
| 20260504170503 | 21 | 189 | 4.8 | 12.9 | 0.00 | 0.00 | 0.00 | 41 | 1010.8 |
| 20260504151003 | 18 | 251 | 3.2 | 11.3 | 0.00 | 0.00 | 0.00 | 45 | 1012.0 |
| 20260504150503 | 18 | 240 | 4.8 | 12.9 | 0.00 | 0.00 | 0.00 | 44 | 1012.0 |
| 20260504141003 | 16 | 211 | 4.8 | 12.9 | 0.00 | 0.00 | 0.00 | 53 | 1012.2 |
| 20260504100503 | 5 | 0 | 0.0 | 0.0 | 0.00 | 0.00 | 0.00 | 73 | 1013.0 |
| 20260504082003 | 5 | 0 | 0.0 | 0.0 | 0.00 | 0.00 | 0.00 | 67 | 1013.1 |
| 20260504081503 | 6 | 0 | 0.0 | 0.0 | 0.00 | 0.00 | 0.00 | 68 | 1012.9 |
| 20260504081003 | 6 | 326 | 0.0 | 1.6 | 0.00 | 0.00 | 0.00 | 67 | 1013.0 |
| 20260504080503 | 6 | 326 | 0.0 | 1.6 | 0.00 | 0.00 | 0.00 | 66 | 1012.9 |